Scottsbluff, NE

4:09 AM MDT on October 16, 2019 (GMT -0600)
Heilig

Weather History for KBFF - August, 2019

Change the Weather History Date:

Thursday, August 8, 2019

  Actual Average Record
Temperature  
Mean Temperature 74 °F -  
Max Temperature 86 °F 89 °F 103 °F (1969)
Min Temperature 63 °F 57 °F 42 °F (1939)
Cooling Degree Days 10    
Growing Degree Days 24 (Base 50)    
Moisture  
Dew Point 63 °F    
Average Humidity 74    
Maximum Humidity 97    
Minimum Humidity 41    
Precipitation  
Precipitation 0.01 in - - ()
Sea Level Pressure  
Sea Level Pressure 29.92 in    
Wind  
Wind Speed 5 mph (ESE)    
Max Wind Speed 12 mph    
Max Gust Speed -    
Visibility 10 miles    
Events Rain    
Averages and records for this station are not official NWS values.
T = Trace of Precipitation, MM = Missing Value Source: NWS Daily Summary

Daily Weather History Graph

Daily Weather History Graph

Search for Another Location

Airport or City:

Astronomy

Aug. 08, 2019 Rise Set
Actual Time 5:55 AM MDT 8:04 PM MDT
Civil Twilight 5:24 AM MDT 8:34 PM MDT
Nautical Twilight 4:46 AM MDT 9:12 PM MDT
Astronomical Twilight 4:05 AM MDT 9:53 PM MDT
Moon 2:43 PM MDT (8/8) 12:19 AM MDT (8/8)
Length of Visible Light 15h 10m
Length of Day
14h 09m
First Quarter, 61% of the Moon is Illuminated
Aug 8
First Quarter
Aug 15
Full
Aug 23
Last Quarter
Aug 30
New
Sep 5
First Quarter

Hourly Weather History & Observations

Time (MDT) Temp. Heat Index Dew Point Humidity Pressure Visibility Wind Dir Wind Speed Gust Speed Precip Events Conditions
12:53 AM 61.0 °F - 60.1 °F 97% 29.91 in 10.0 mi NNW 5.8 mph - N/A   Clear
1:53 AM 63.0 °F - 61.0 °F 93% 29.91 in 10.0 mi NNW 6.9 mph - N/A   Clear
2:53 AM 63.0 °F - 61.0 °F 93% 29.89 in 10.0 mi Calm Calm - N/A   Clear
3:53 AM 63.0 °F - 62.1 °F 97% 29.91 in 10.0 mi NNW 4.6 mph - N/A   Partly Cloudy
4:53 AM 63.0 °F - 61.0 °F 93% 29.91 in 10.0 mi Calm Calm - N/A   Clear
5:53 AM 63.0 °F - 62.1 °F 97% 29.93 in 10.0 mi South 3.5 mph - N/A   Clear
6:53 AM 64.0 °F - 62.1 °F 93% 29.95 in 9.0 mi East 4.6 mph - N/A   Clear
7:53 AM 64.9 °F - 63.0 °F 93% 29.96 in 10.0 mi East 5.8 mph - 0.00 in   Mostly Cloudy
8:53 AM 66.9 °F - 64.0 °F 90% 29.97 in 10.0 mi South 5.8 mph - 0.00 in Rain Light Rain
9:53 AM 71.1 °F - 63.0 °F 75% 29.97 in 10.0 mi ESE 4.6 mph - 0.00 in   Mostly Cloudy
10:53 AM 72.0 °F - 63.0 °F 73% 29.98 in 10.0 mi South 3.5 mph - N/A   Partly Cloudy
11:53 AM 75.9 °F - 61.0 °F 60% 29.97 in 10.0 mi Calm Calm - N/A   Clear
12:53 PM 80.1 °F 80.9 °F 60.1 °F 50% 29.95 in 10.0 mi East 8.1 mph - N/A   Clear
1:53 PM 80.1 °F 81.5 °F 63.0 °F 56% 29.93 in 10.0 mi East 4.6 mph - N/A   Clear
2:53 PM 80.1 °F 81.7 °F 64.0 °F 58% 29.91 in 10.0 mi East 6.9 mph - N/A   Scattered Clouds
3:53 PM 84.0 °F 84.9 °F 63.0 °F 49% 29.88 in 10.0 mi ESE 8.1 mph - N/A   Clear
4:53 PM 84.0 °F 85.8 °F 64.9 °F 53% 29.86 in 10.0 mi East 8.1 mph - N/A   Clear
5:53 PM 84.0 °F 85.4 °F 64.0 °F 51% 29.86 in 10.0 mi SE 10.4 mph - N/A   Clear
6:53 PM 80.1 °F 81.1 °F 61.0 °F 52% 29.88 in 10.0 mi SE 10.4 mph - N/A   Clear
7:53 PM 75.9 °F - 64.9 °F 69% 29.89 in 10.0 mi ESE 11.5 mph - N/A   Clear
8:53 PM 75.0 °F - 66.0 °F 73% 29.91 in 10.0 mi SE 10.4 mph - N/A   Partly Cloudy
9:53 PM 72.0 °F - 66.9 °F 84% 29.91 in 10.0 mi ESE 8.1 mph - N/A   Clear
10:53 PM 72.0 °F - 64.9 °F 78% 29.93 in 10.0 mi SSE 8.1 mph - N/A   Clear
11:53 PM 69.1 °F - 64.9 °F 87% 29.93 in 10.0 mi SSE 9.2 mph - 0.01 in Rain Light Rain